Location: Julian California
(33.0790°N, 116.6010°W)
Time: 11:01:36
(UTC-07:00)

DMSP B5D2-2 - Pass Details

Date: 19 May 2017
Orbit: 791 x 806 km, 98.5° (Epoch: 25 September)

Event Time Altitude Azimuth Distance (km) Brightness Sun altitude
Rises 22:29:32 0° 11° (NNE) 3,322 7.9 -28.1°
Reaches altitude 10° 22:31:52 10° 11° (N) 2,387 7.0 -28.4°
Enters shadow 22:36:39 73° 354° (N) 840 4.2 -28.9°
